| time (UTC) | temp F | wind direction | speed MPH | gust MPH | rain 1hr in | rain 24hr in | rain mn in | humidity % | barometer mb |
| 20260504130348 | 63 | 207 | 5.0 | 10.0 | 0.00 | 0.00 | 0.00 | 75 | 1011.2 |
| 20260504110334 | 62 | 207 | 2.0 | 8.0 | 0.00 | 0.00 | 0.00 | 70 | 1010.8 |
| 20260504100351 | 63 | 169 | 6.0 | 9.0 | 0.00 | 0.00 | 0.00 | 66 | 1010.7 |
| 20260504081339 | 64 | 188 | 8.0 | 14.0 | 0.00 | 0.00 | 0.00 | 63 | 1010.6 |
| 20260504080352 | 63 | 190 | 2.0 | 11.0 | 0.00 | 0.00 | 0.00 | 63 | 1010.7 |
| 20260504070342 | 62 | 161 | 1.0 | 3.0 | 0.00 | 0.00 | 0.00 | 60 | 1011.0 |
| 20260504050343 | 59 | 103 | 0.0 | 0.0 | 0.00 | 0.00 | 0.00 | 62 | 1012.1 |
| 20260504045840 | 59 | 103 | 0.0 | 1.0 | 0.00 | 0.00 | 0.00 | 61 | 1012.1 |
| 20260504045334 | 59 | 103 | 0.0 | 1.0 | 0.00 | 0.00 | 0.00 | 61 | 1012.2 |
| 20260504044848 | 59 | 103 | 0.0 | 1.0 | 0.00 | 0.00 | 0.00 | 60 | 1012.2 |
| 20260504044343 | 59 | 103 | 0.0 | 1.0 | 0.00 | 0.00 | 0.00 | 60 | 1012.3 |
| 20260504043843 | 59 | 103 | 0.0 | 1.0 | 0.00 | 0.00 | 0.00 | 60 | 1012.3 |
| 20260504042835 | 59 | 98 | 0.0 | 0.0 | 0.00 | 0.00 | 0.00 | 60 | 1012.4 |
| 20260504042349 | 59 | 98 | 0.0 | 0.0 | 0.00 | 0.00 | 0.00 | 60 | 1012.4 |
| 20260504041843 | 59 | 98 | 0.0 | 0.0 | 0.00 | 0.00 | 0.00 | 59 | 1012.4 |
| 20260504041337 | 60 | 98 | 0.0 | 0.0 | 0.00 | 0.00 | 0.00 | 59 | 1012.5 |
| 20260504040348 | 59 | 98 | 0.0 | 0.0 | 0.00 | 0.00 | 0.00 | 59 | 1012.5 |
| 20260504035843 | 60 | 98 | 0.0 | 0.0 | 0.00 | 0.00 | 0.00 | 59 | 1012.5 |
| 20260504035338 | 60 | 98 | 0.0 | 0.0 | 0.00 | 0.00 | 0.00 | 60 | 1012.5 |
| 20260504034852 | 60 | 98 | 0.0 | 0.0 | 0.00 | 0.00 | 0.00 | 60 | 1012.6 |
| 20260504034346 | 60 | 98 | 0.0 | 0.0 | 0.00 | 0.00 | 0.00 | 58 | 1012.6 |
| 20260504033841 | 60 | 98 | 0.0 | 0.0 | 0.00 | 0.00 | 0.00 | 59 | 1012.6 |
| 20260504033335 | 60 | 98 | 0.0 | 0.0 | 0.00 | 0.00 | 0.00 | 58 | 1012.8 |
| 20260504032347 | 60 | 97 | 0.0 | 1.0 | 0.00 | 0.00 | 0.00 | 58 | 1012.8 |
| 20260504031841 | 60 | 96 | 0.0 | 1.0 | 0.00 | 0.00 | 0.00 | 58 | 1013.0 |
| 20260504031335 | 61 | 92 | 0.0 | 0.0 | 0.00 | 0.00 | 0.00 | 57 | 1013.0 |
| 20260504030850 | 61 | 92 | 0.0 | 0.0 | 0.00 | 0.00 | 0.00 | 57 | 1013.0 |
| 20260504030345 | 61 | 92 | 0.0 | 0.0 | 0.00 | 0.00 | 0.00 | 56 | 1013.0 |
| 20260504025840 | 61 | 92 | 0.0 | 1.0 | 0.00 | 0.00 | 0.00 | 58 | 1012.9 |
| 20260504025337 | 61 | 91 | 0.0 | 2.0 | 0.00 | 0.00 | 0.00 | 60 | 1012.7 |
| 20260504024349 | 63 | 131 | 1.0 | 11.0 | 0.00 | 0.00 | 0.00 | 59 | 1012.6 |
| 20260504023843 | 63 | 183 | 2.0 | 9.0 | 0.00 | 0.00 | 0.00 | 60 | 1012.6 |
| 20260504023338 | 64 | 193 | 6.0 | 9.0 | 0.00 | 0.00 | 0.00 | 62 | 1012.5 |
| 20260504022833 | 63 | 175 | 3.0 | 5.0 | 0.00 | 0.00 | 0.00 | 58 | 1012.6 |
| 20260504022346 | 63 | 190 | 2.0 | 5.0 | 0.00 | 0.00 | 0.00 | 56 | 1012.5 |
| 20260504021841 | 63 | 163 | 2.0 | 5.0 | 0.00 | 0.00 | 0.00 | 57 | 1012.3 |
| 20260504021334 | 63 | 163 | 1.0 | 5.0 | 0.00 | 0.00 | 0.00 | 55 | 1012.2 |
| 20260504020849 | 63 | 174 | 2.0 | 4.0 | 0.00 | 0.00 | 0.00 | 55 | 1012.2 |
| 20260504020341 | 63 | 166 | 1.0 | 4.0 | 0.00 | 0.00 | 0.00 | 53 | 1012.1 |
| 20260504015351 | 64 | 167 | 2.0 | 3.0 | 0.00 | 0.00 | 0.00 | 55 | 1012.3 |
| 20260504014846 | 63 | 187 | 0.0 | 3.0 | 0.00 | 0.00 | 0.00 | 54 | 1012.4 |
| 20260504014338 | 63 | 245 | 0.0 | 2.0 | 0.00 | 0.00 | 0.00 | 53 | 1012.3 |
| 20260504013351 | 63 | 175 | 1.0 | 3.0 | 0.00 | 0.00 | 0.00 | 52 | 1012.4 |
| 20260504012846 | 63 | 186 | 0.0 | 2.0 | 0.00 | 0.00 | 0.00 | 52 | 1012.5 |
| 20260504012339 | 63 | 144 | 0.0 | 2.0 | 0.00 | 0.00 | 0.00 | 52 | 1012.4 |
| 20260504011834 | 64 | 144 | 0.0 | 2.0 | 0.00 | 0.00 | 0.00 | 52 | 1012.4 |
| 20260504011348 | 64 | 200 | 0.0 | 2.0 | 0.00 | 0.00 | 0.00 | 51 | 1012.5 |
| 20260504010845 | 65 | 158 | 0.0 | 2.0 | 0.00 | 0.00 | 0.00 | 51 | 1012.5 |
| 20260504005839 | 65 | 153 | 1.0 | 3.0 | 0.00 | 0.00 | 0.00 | 49 | 1012.5 |
| 20260504004348 | 66 | 111 | 1.0 | 10.0 | 0.00 | 0.00 | 0.00 | 50 | 1012.6 |
| 20260504003840 | 68 | 232 | 5.0 | 10.0 | 0.00 | 0.00 | 0.00 | 54 | 1012.6 |
| 20260504003334 | 68 | 200 | 4.0 | 12.0 | 0.00 | 0.00 | 0.00 | 52 | 1012.6 |
| 20260504002848 | 68 | 221 | 7.0 | 12.0 | 0.00 | 0.00 | 0.00 | 51 | 1012.7 |
| 20260504002342 | 68 | 170 | 6.0 | 11.0 | 0.00 | 0.00 | 0.00 | 49 | 1012.7 |
| 20260504001837 | 68 | 215 | 7.0 | 15.0 | 0.00 | 0.00 | 0.00 | 49 | 1012.6 |
| 20260504001352 | 69 | 218 | 5.0 | 15.0 | 0.00 | 0.00 | 0.00 | 51 | 1012.6 |
| 20260504000846 | 69 | 188 | 9.0 | 13.0 | 0.00 | 0.00 | 0.00 | 49 | 1012.6 |
| 20260503235838 | 69 | 196 | 7.0 | 14.0 | 0.00 | 0.00 | 0.00 | 50 | 1012.8 |
| 20260503235332 | 69 | 207 | 8.0 | 14.0 | 0.00 | 0.00 | 0.00 | 47 | 1012.8 |
| 20260503234847 | 69 | 165 | 7.0 | 13.0 | 0.00 | 0.00 | 0.00 | 52 | 1012.8 |
| 20260503234343 | 69 | 205 | 8.0 | 13.0 | 0.00 | 0.00 | 0.00 | 51 | 1012.8 |
| 20260503231339 | 69 | 198 | 8.0 | 16.0 | 0.00 | 0.00 | 0.00 | 47 | 1013.3 |
| 20260503230834 | 69 | 199 | 8.0 | 14.0 | 0.00 | 0.00 | 0.00 | 48 | 1013.4 |
| 20260503225843 | 70 | 190 | 5.0 | 15.0 | 0.00 | 0.00 | 0.00 | 46 | 1013.5 |
| 20260503225337 | 69 | 176 | 7.0 | 16.0 | 0.00 | 0.00 | 0.00 | 52 | 1013.4 |
| 20260503224851 | 69 | 207 | 9.0 | 18.0 | 0.00 | 0.00 | 0.00 | 50 | 1013.5 |
| 20260503223842 | 70 | 183 | 6.0 | 13.0 | 0.00 | 0.00 | 0.00 | 44 | 1013.7 |
| 20260503222834 | 70 | 220 | 7.0 | 13.0 | 0.00 | 0.00 | 0.00 | 48 | 1013.7 |
| 20260503222348 | 70 | 184 | 4.0 | 13.0 | 0.00 | 0.00 | 0.00 | 46 | 1013.9 |
| 20260503221846 | 70 | 218 | 5.0 | 16.0 | 0.00 | 0.00 | 0.00 | 50 | 1014.0 |
| 20260503221342 | 69 | 189 | 9.0 | 16.0 | 0.00 | 0.00 | 0.00 | 48 | 1014.1 |
| 20260503220337 | 70 | 175 | 4.0 | 11.0 | 0.00 | 0.00 | 0.00 | 47 | 1014.3 |
| 20260503215832 | 70 | 186 | 5.0 | 10.0 | 0.00 | 0.00 | 0.00 | 48 | 1014.3 |
| 20260503215346 | 69 | 184 | 5.0 | 10.0 | 0.00 | 0.00 | 0.00 | 47 | 1014.4 |
| 20260503214338 | 69 | 175 | 6.0 | 14.0 | 0.00 | 0.00 | 0.00 | 49 | 1014.7 |
| 20260503213832 | 69 | 211 | 6.0 | 15.0 | 0.00 | 0.00 | 0.00 | 47 | 1014.7 |
| 20260503213348 | 69 | 178 | 8.0 | 15.0 | 0.00 | 0.00 | 0.00 | 52 | 1014.8 |
| 20260503212843 | 69 | 195 | 7.0 | 15.0 | 0.00 | 0.00 | 0.00 | 49 | 1014.7 |
| 20260503212337 | 68 | 230 | 7.0 | 17.0 | 0.00 | 0.00 | 0.00 | 45 | 1014.9 |
| 20260503211852 | 68 | 211 | 11.0 | 17.0 | 0.00 | 0.00 | 0.00 | 45 | 1015.0 |
| 20260503211346 | 68 | 200 | 9.0 | 19.0 | 0.00 | 0.00 | 0.00 | 46 | 1015.2 |
| 20260503210840 | 69 | 217 | 9.0 | 19.0 | 0.00 | 0.00 | 0.00 | 47 | 1015.3 |
| 20260503205852 | 68 | 183 | 7.0 | 14.0 | 0.00 | 0.00 | 0.00 | 44 | 1015.5 |
| 20260503204841 | 68 | 216 | 9.0 | 17.0 | 0.00 | 0.00 | 0.00 | 45 | 1015.5 |
| 20260503204336 | 68 | 185 | 5.0 | 14.0 | 0.00 | 0.00 | 0.00 | 45 | 1015.7 |
| 20260503203849 | 68 | 176 | 7.0 | 14.0 | 0.00 | 0.00 | 0.00 | 47 | 1016.0 |
| 20260503203344 | 68 | 184 | 7.0 | 11.0 | 0.00 | 0.00 | 0.00 | 45 | 1016.1 |
| 20260503202843 | 67 | 188 | 7.0 | 13.0 | 0.00 | 0.00 | 0.00 | 46 | 1016.2 |
| 20260503202337 | 68 | 261 | 8.0 | 14.0 | 0.00 | 0.00 | 0.00 | 51 | 1016.3 |
| 20260503201853 | 67 | 254 | 9.0 | 14.0 | 0.00 | 0.00 | 0.00 | 47 | 1016.3 |
| 20260503201347 | 67 | 205 | 8.0 | 14.0 | 0.00 | 0.00 | 0.00 | 46 | 1016.5 |
| 20260503200842 | 67 | 211 | 5.0 | 14.0 | 0.00 | 0.00 | 0.00 | 50 | 1016.5 |
| 20260503195834 | 67 | 204 | 8.0 | 13.0 | 0.00 | 0.00 | 0.00 | 45 | 1016.8 |
| 20260503195349 | 67 | 252 | 8.0 | 13.0 | 0.00 | 0.00 | 0.00 | 49 | 1016.9 |
| 20260503194843 | 67 | 190 | 6.0 | 18.0 | 0.00 | 0.00 | 0.00 | 45 | 1016.9 |
| 20260503193835 | 67 | 212 | 4.0 | 14.0 | 0.00 | 0.00 | 0.00 | 43 | 1017.1 |
| 20260503193348 | 67 | 161 | 8.0 | 14.0 | 0.00 | 0.00 | 0.00 | 46 | 1017.3 |
| 20260503192843 | 66 | 228 | 5.0 | 15.0 | 0.00 | 0.00 | 0.00 | 47 | 1017.4 |
| 20260503192338 | 66 | 185 | 9.0 | 18.0 | 0.00 | 0.00 | 0.00 | 46 | 1017.4 |
| 20260503191833 | 66 | 214 | 11.0 | 16.0 | 0.00 | 0.00 | 0.00 | 46 | 1017.6 |
| 20260503190842 | 66 | 192 | 6.0 | 17.0 | 0.00 | 0.00 | 0.00 | 47 | 1017.8 |
| 20260503185834 | 66 | 174 | 3.0 | 13.0 | 0.00 | 0.00 | 0.00 | 46 | 1018.1 |
| 20260503185349 | 66 | 197 | 3.0 | 13.0 | 0.00 | 0.00 | 0.00 | 51 | 1018.2 |
| 20260503184844 | 65 | 219 | 4.0 | 17.0 | 0.00 | 0.00 | 0.00 | 47 | 1018.3 |
| 20260503184339 | 65 | 215 | 8.0 | 17.0 | 0.00 | 0.00 | 0.00 | 50 | 1018.4 |
| 20260503183837 | 65 | 194 | 2.0 | 14.0 | 0.00 | 0.00 | 0.00 | 45 | 1018.5 |
| 20260503183350 | 65 | 196 | 4.0 | 16.0 | 0.00 | 0.00 | 0.00 | 46 | 1018.7 |
| 20260503182847 | 65 | 226 | 8.0 | 16.0 | 0.00 | 0.00 | 0.00 | 51 | 1018.7 |
| 20260503182341 | 64 | 252 | 7.0 | 11.0 | 0.00 | 0.00 | 0.00 | 44 | 1018.9 |
| 20260503181333 | 64 | 263 | 6.0 | 13.0 | 0.00 | 0.00 | 0.00 | 48 | 1019.0 |
| 20260503180846 | 65 | 210 | 4.0 | 13.0 | 0.00 | 0.00 | 0.00 | 50 | 1019.0 |
| 20260503180340 | 64 | 188 | 4.0 | 12.0 | 0.00 | 0.00 | 0.00 | 48 | 1019.0 |
| 20260503175833 | 64 | 173 | 4.0 | 7.0 | 0.00 | 0.00 | 0.00 | 50 | 1019.0 |
| 20260503175347 | 64 | 172 | 3.0 | 10.0 | 0.00 | 0.00 | 0.00 | 49 | 1019.1 |
| 20260503174842 | 63 | 194 | 3.0 | 10.0 | 0.00 | 0.00 | 0.00 | 46 | 1019.2 |
| 20260503174337 | 63 | 134 | 2.0 | 8.0 | 0.00 | 0.00 | 0.00 | 47 | 1019.3 |
| 20260503173834 | 63 | 210 | 4.0 | 8.0 | 0.00 | 0.00 | 0.00 | 51 | 1019.3 |
| 20260503173350 | 63 | 169 | 2.0 | 10.0 | 0.00 | 0.00 | 0.00 | 50 | 1019.5 |
| 20260503172841 | 62 | 221 | 7.0 | 13.0 | 0.00 | 0.00 | 0.00 | 57 | 1019.5 |